Time,TemperatureF,DewpointF,PressureIn,WindDirection,WindDirectionDegrees,WindSpeedMPH,WindSpeedGustMPH,Humidity,HourlyPrecipIn,Conditions,Clouds,dailyrainin,SoftwareType,DateUTC
2013-03-10 00:00:00,43.6,24.6,30.19,South,180,0.4,0.7,47,0.00,,,0.00,WUHU216HW,2013-03-10 05:00:00,
2013-03-10 00:05:00,43.6,24.6,30.19,ESE,113,0.0,0.7,47,0.00,,,0.00,WUHU216HW,2013-03-10 05:05:00,
2013-03-10 00:10:00,43.6,24.6,30.19,SE,135,0.0,0.7,47,0.00,,,0.00,WUHU216HW,2013-03-10 05:10:00,
2013-03-10 00:15:00,43.6,24.6,30.19,SE,135,0.0,0.4,47,0.00,,,0.00,WUHU216HW,2013-03-10 05:15:00,
2013-03-10 00:20:00,43.6,25.1,30.18,SE,135,0.4,0.7,48,0.00,,,0.00,WUHU216HW,2013-03-10 05:20:00,
2013-03-10 00:25:00,43.6,24.6,30.18,ESE,113,0.4,0.7,47,0.00,,,0.00,WUHU216HW,2013-03-10 05:25:00,
2013-03-10 00:30:00,43.7,25.3,30.18,ESE,113,0.0,0.7,48,0.00,,,0.00,WUHU216HW,2013-03-10 05:30:00,
2013-03-10 00:35:00,43.7,24.8,30.18,ESE,113,0.4,0.4,47,0.00,,,0.00,WUHU216HW,2013-03-10 05:35:00,
2013-03-10 00:40:00,43.9,24.9,30.18,ESE,113,0.2,1.1,47,0.00,,,0.00,WUHU216HW,2013-03-10 05:40:00,
2013-03-10 00:45:00,43.7,24.8,30.18,SSW,203,0.7,4.0,47,0.00,,,0.00,WUHU216HW,2013-03-10 05:45:00,
2013-03-10 00:50:00,43.7,24.8,30.18,SE,135,0.0,4.0,47,0.00,,,0.00,WUHU216HW,2013-03-10 05:50:00,
2013-03-10 00:55:00,43.7,24.8,30.18,ESE,113,0.2,1.6,47,0.00,,,0.00,WUHU216HW,2013-03-10 05:55:00,
2013-03-10 01:00:00,43.7,25.3,30.18,ESE,113,0.0,0.7,48,0.00,,,0.00,WUHU216HW,2013-03-10 06:00:00,
2013-03-10 01:05:00,43.6,25.1,30.18,ESE,113,0.4,0.9,48,0.00,,,0.00,WUHU216HW,2013-03-10 06:05:00,
2013-03-10 01:10:00,43.6,25.1,30.18,SE,135,0.4,0.9,48,0.00,,,0.00,WUHU216HW,2013-03-10 06:10:00,
2013-03-10 01:15:00,43.6,25.7,30.19,ESE,113,0.0,0.9,49,0.00,,,0.00,WUHU216HW,2013-03-10 06:15:00,
2013-03-10 01:20:00,43.6,25.7,30.19,ESE,113,0.0,0.4,49,0.00,,,0.00,WUHU216HW,2013-03-10 06:20:00,
2013-03-10 01:25:00,43.6,25.7,30.19,ESE,113,0.2,0.2,49,0.00,,,0.00,WUHU216HW,2013-03-10 06:25:00,
2013-03-10 01:30:00,43.4,25.5,30.18,SE,135,0.4,0.4,49,0.00,,,0.00,WUHU216HW,2013-03-10 06:30:00,
2013-03-10 01:35:00,43.4,25.5,30.18,SE,135,0.2,0.9,49,0.00,,,0.00,WUHU216HW,2013-03-10 06:35:00,
2013-03-10 01:40:00,43.6,25.7,30.18,SE,135,0.2,1.1,49,0.00,,,0.00,WUHU216HW,2013-03-10 06:40:00,
2013-03-10 01:45:00,43.6,25.7,30.17,SE,135,0.0,1.1,49,0.00,,,0.00,WUHU216HW,2013-03-10 06:45:00,
2013-03-10 01:50:00,43.2,25.4,30.17,SE,135,0.4,0.4,49,0.00,,,0.00,WUHU216HW,2013-03-10 06:50:00,
2013-03-10 01:55:00,43.2,25.4,30.17,SE,135,0.0,0.4,49,0.00,,,0.00,WUHU216HW,2013-03-10 06:55:00,
2013-03-10 03:00:00,43.0,25.2,30.17,SE,135,0.7,0.7,49,0.00,,,0.00,WUHU216HW,2013-03-10 07:00:00,
2013-03-10 03:05:00,43.2,25.4,30.16,SE,135,0.0,0.7,49,0.00,,,0.00,WUHU216HW,2013-03-10 07:05:00,
2013-03-10 03:11:00,43.0,25.2,30.16,SE,135,0.0,0.0,49,0.00,,,0.00,WUHU216HW,2013-03-10 07:11:00,
2013-03-10 03:16:00,42.8,25.6,30.16,SSE,158,0.0,0.0,50,0.00,,,0.00,WUHU216HW,2013-03-10 07:16:00,
2013-03-10 03:20:00,42.8,25.6,30.16,SSE,158,0.2,0.2,50,0.00,,,0.00,WUHU216HW,2013-03-10 07:20:00,
2013-03-10 03:25:00,43.0,25.8,30.16,SE,135,0.4,0.4,50,0.00,,,0.00,WUHU216HW,2013-03-10 07:25:00,
2013-03-10 03:31:00,43.4,26.0,30.15,ENE,68,0.4,1.1,50,0.00,,,0.00,WUHU216HW,2013-03-10 07:31:00,
2013-03-10 03:35:00,43.6,26.2,30.15,ESE,113,1.1,1.1,50,0.00,,,0.00,WUHU216HW,2013-03-10 07:35:00,
2013-03-10 03:40:00,43.7,26.4,30.15,East,90,0.4,1.1,50,0.00,,,0.00,WUHU216HW,2013-03-10 07:40:00,
2013-03-10 03:45:00,43.9,26.0,30.15,ESE,113,0.0,1.8,49,0.00,,,0.00,WUHU216HW,2013-03-10 07:45:00,
2013-03-10 03:50:00,43.9,26.0,30.15,ESE,113,0.0,1.8,49,0.00,,,0.00,WUHU216HW,2013-03-10 07:50:00,
2013-03-10 03:55:00,43.9,25.5,30.14,ESE,113,1.1,1.1,48,0.00,,,0.00,WUHU216HW,2013-03-10 07:55:00,
2013-03-10 04:00:00,44.1,25.7,30.14,East,90,0.9,1.1,48,0.00,,,0.00,WUHU216HW,2013-03-10 08:00:00,
2013-03-10 04:05:00,44.3,25.2,30.14,East,90,0.7,1.1,47,0.00,,,0.00,WUHU216HW,2013-03-10 08:05:00,
2013-03-10 04:10:00,44.3,25.2,30.14,East,90,0.4,1.1,47,0.00,,,0.00,WUHU216HW,2013-03-10 08:10:00,
2013-03-10 04:15:00,44.3,25.2,30.13,SE,135,0.2,1.8,47,0.00,,,0.00,WUHU216HW,2013-03-10 08:15:00,
2013-03-10 04:20:00,44.5,25.4,30.13,SE,135,0.2,1.8,47,0.00,,,0.00,WUHU216HW,2013-03-10 08:20:00,
2013-03-10 04:25:00,44.5,25.4,30.13,ESE,113,0.0,0.7,47,0.00,,,0.00,WUHU216HW,2013-03-10 08:25:00,
2013-03-10 04:30:00,44.5,25.4,30.14,ESE,113,0.0,0.7,47,0.00,,,0.00,WUHU216HW,2013-03-10 08:30:00,
2013-03-10 04:35:00,44.5,25.4,30.14,ESE,113,0.0,0.2,47,0.00,,,0.00,WUHU216HW,2013-03-10 08:35:00,
2013-03-10 04:40:00,44.5,25.4,30.14,SE,135,0.0,0.2,47,0.00,,,0.00,WUHU216HW,2013-03-10 08:40:00,
2013-03-10 04:45:00,44.5,25.4,30.14,ESE,113,1.1,1.1,47,0.00,,,0.00,WUHU216HW,2013-03-10 08:45:00,
2013-03-10 04:50:00,44.6,25.0,30.14,ESE,113,0.9,1.1,46,0.00,,,0.00,WUHU216HW,2013-03-10 08:50:00,
2013-03-10 04:55:00,44.6,25.0,30.14,SE,135,0.9,1.6,46,0.00,,,0.00,WUHU216HW,2013-03-10 08:55:00,
2013-03-10 05:00:00,44.6,25.0,30.14,ESE,113,1.1,1.6,46,0.00,,,0.00,WUHU216HW,2013-03-10 09:00:00,
2013-03-10 05:05:00,44.6,25.0,30.14,ESE,113,0.0,1.1,46,0.00,,,0.00,WUHU216HW,2013-03-10 09:05:00,
2013-03-10 05:10:00,44.6,25.0,30.14,ESE,113,0.2,0.2,46,0.00,,,0.00,WUHU216HW,2013-03-10 09:10:00,
2013-03-10 05:15:00,44.6,24.5,30.14,ESE,113,0.2,0.7,45,0.00,,,0.00,WUHU216HW,2013-03-10 09:15:00,
2013-03-10 05:20:00,44.6,25.0,30.14,ESE,113,0.0,0.7,46,0.00,,,0.00,WUHU216HW,2013-03-10 09:20:00,
2013-03-10 05:25:00,44.6,25.6,30.14,ESE,113,0.0,0.2,47,0.00,,,0.00,WUHU216HW,2013-03-10 09:25:00,
2013-03-10 05:30:00,44.5,25.4,30.14,ESE,113,0.0,0.0,47,0.00,,,0.00,WUHU216HW,2013-03-10 09:30:00,
2013-03-10 05:35:00,44.3,25.2,30.14,ESE,113,0.0,0.0,47,0.00,,,0.00,WUHU216HW,2013-03-10 09:35:00,
2013-03-10 05:40:00,44.3,25.7,30.15,ESE,113,0.0,0.0,48,0.00,,,0.00,WUHU216HW,2013-03-10 09:40:00,
2013-03-10 05:50:00,44.1,25.7,30.15,ESE,113,0.0,0.0,48,0.00,,,0.00,WUHU216HW,2013-03-10 09:50:00,
2013-03-10 05:55:00,43.9,26.0,30.15,ESE,113,0.0,0.0,49,0.00,,,0.00,WUHU216HW,2013-03-10 09:55:00,
2013-03-10 06:00:00,43.7,25.8,30.15,ESE,113,0.0,0.0,49,0.00,,,0.00,WUHU216HW,2013-03-10 10:00:00,
2013-03-10 06:05:00,43.7,25.8,30.15,ESE,113,0.0,0.0,49,0.00,,,0.00,WUHU216HW,2013-03-10 10:05:00,
2013-03-10 06:10:00,43.9,26.0,30.15,ESE,113,0.0,0.2,49,0.00,,,0.00,WUHU216HW,2013-03-10 10:10:00,
2013-03-10 06:15:00,43.9,25.5,30.14,ESE,113,0.0,0.2,48,0.00,,,0.00,WUHU216HW,2013-03-10 10:15:00,
2013-03-10 06:20:00,44.1,25.7,30.14,ESE,113,0.0,0.9,48,0.00,,,0.00,WUHU216HW,2013-03-10 10:20:00,
2013-03-10 06:25:00,44.1,25.7,30.14,ESE,113,0.7,1.1,48,0.00,,,0.00,WUHU216HW,2013-03-10 10:25:00,
2013-03-10 06:30:00,44.3,25.2,30.13,SE,135,1.1,1.1,47,0.00,,,0.00,WUHU216HW,2013-03-10 10:30:00,
2013-03-10 06:35:00,44.3,25.2,30.13,SSE,158,0.4,1.1,47,0.00,,,0.00,WUHU216HW,2013-03-10 10:35:00,
2013-03-10 06:40:00,44.3,25.2,30.14,West,270,0.4,0.7,47,0.00,,,0.00,WUHU216HW,2013-03-10 10:40:00,
2013-03-10 06:45:00,44.6,25.6,30.14,SE,135,0.4,1.8,47,0.00,,,0.00,WUHU216HW,2013-03-10 10:45:00,
2013-03-10 06:50:00,45.0,25.9,30.15,ESE,113,1.1,1.8,47,0.00,,,0.00,WUHU216HW,2013-03-10 10:50:00,
2013-03-10 06:55:00,45.0,25.9,30.15,ESE,113,0.0,1.1,47,0.00,,,0.00,WUHU216HW,2013-03-10 10:55:00,
2013-03-10 07:00:00,45.0,25.9,30.15,ESE,113,0.0,0.7,47,0.00,,,0.00,WUHU216HW,2013-03-10 11:00:00,
2013-03-10 07:05:00,45.0,25.9,30.15,ESE,113,0.0,0.7,47,0.00,,,0.00,WUHU216HW,2013-03-10 11:05:00,
2013-03-10 07:10:00,44.6,25.6,30.15,ESE,113,0.0,0.4,47,0.00,,,0.00,WUHU216HW,2013-03-10 11:10:00,
2013-03-10 07:15:00,44.3,25.7,30.15,ESE,113,0.0,0.2,48,0.00,,,0.00,WUHU216HW,2013-03-10 11:15:00,
2013-03-10 07:20:00,43.9,25.5,30.15,ESE,113,0.0,0.9,48,0.00,,,0.00,WUHU216HW,2013-03-10 11:20:00,
2013-03-10 07:25:00,43.6,25.1,30.15,ESE,113,0.0,0.9,48,0.00,,,0.00,WUHU216HW,2013-03-10 11:25:00,
2013-03-10 07:30:00,43.4,24.9,30.15,ESE,113,0.2,0.2,48,0.00,,,0.00,WUHU216HW,2013-03-10 11:30:00,
2013-03-10 07:35:00,43.6,25.7,30.15,SSE,158,1.1,1.1,49,0.00,,,0.00,WUHU216HW,2013-03-10 11:35:00,
2013-03-10 07:40:00,43.7,25.8,30.15,SSE,158,0.0,1.1,49,0.00,,,0.00,WUHU216HW,2013-03-10 11:40:00,
2013-03-10 07:45:00,43.9,25.5,30.15,SSE,158,0.4,0.4,48,0.00,,,0.00,WUHU216HW,2013-03-10 11:45:00,
2013-03-10 07:50:00,44.3,25.7,30.15,SSW,203,0.9,0.9,48,0.00,,,0.00,WUHU216HW,2013-03-10 11:50:00,
2013-03-10 07:55:00,44.5,25.9,30.15,South,180,0.0,0.9,48,0.00,,,0.00,WUHU216HW,2013-03-10 11:55:00,
2013-03-10 08:00:00,44.6,25.6,30.15,South,180,0.4,1.1,47,0.00,,,0.00,WUHU216HW,2013-03-10 12:00:00,
2013-03-10 08:05:00,45.0,25.9,30.15,SE,135,0.0,1.1,47,0.00,,,0.00,WUHU216HW,2013-03-10 12:05:00,
2013-03-10 08:10:00,45.0,25.9,30.15,SE,135,0.2,0.7,47,0.00,,,0.00,WUHU216HW,2013-03-10 12:10:00,
2013-03-10 08:15:00,45.0,25.9,30.15,SE,135,0.4,0.7,47,0.00,,,0.00,WUHU216HW,2013-03-10 12:15:00,
2013-03-10 08:20:00,45.0,25.9,30.15,East,90,0.0,0.7,47,0.00,,,0.00,WUHU216HW,2013-03-10 12:20:00,
2013-03-10 08:25:00,45.2,25.5,30.15,East,90,0.2,0.7,46,0.00,,,0.00,WUHU216HW,2013-03-10 12:25:00,
2013-03-10 08:30:00,45.4,25.7,30.16,SE,135,0.2,0.7,46,0.00,,,0.00,WUHU216HW,2013-03-10 12:30:00,
2013-03-10 08:35:00,45.4,25.7,30.16,SE,135,0.2,0.4,46,0.00,,,0.00,WUHU216HW,2013-03-10 12:35:00,
2013-03-10 08:40:00,45.7,26.0,30.16,SSE,158,0.0,0.4,46,0.00,,,0.00,WUHU216HW,2013-03-10 12:40:00,
2013-03-10 08:45:00,45.9,26.2,30.16,SE,135,0.4,0.4,46,0.00,,,0.00,WUHU216HW,2013-03-10 12:45:00,
2013-03-10 08:50:00,46.3,26.5,30.16,ESE,113,0.9,0.9,46,0.00,,,0.00,WUHU216HW,2013-03-10 12:50:00,
2013-03-10 08:55:00,46.8,26.5,30.16,SE,135,0.4,0.9,45,0.00,,,0.00,WUHU216HW,2013-03-10 12:55:00,
2013-03-10 09:00:00,47.0,26.6,30.16,SSE,158,0.2,1.1,45,0.00,,,0.00,WUHU216HW,2013-03-10 13:00:00,
2013-03-10 09:05:00,47.2,26.7,30.16,SE,135,0.0,1.1,45,0.00,,,0.00,WUHU216HW,2013-03-10 13:05:00,
2013-03-10 09:10:00,47.5,26.6,30.16,SSW,203,0.7,0.7,44,0.00,,,0.00,WUHU216HW,2013-03-10 13:10:00,
2013-03-10 09:15:00,47.9,27.4,30.16,South,180,0.0,0.7,45,0.00,,,0.00,WUHU216HW,2013-03-10 13:15:00,
2013-03-10 09:20:00,48.6,27.6,30.16,SSE,158,0.4,1.1,44,0.00,,,0.00,WUHU216HW,2013-03-10 13:20:00,
2013-03-10 09:25:00,49.1,27.5,30.16,ESE,113,3.4,3.4,43,0.00,,,0.00,WUHU216HW,2013-03-10 13:25:00,
2013-03-10 09:30:00,49.3,28.2,30.17,ESE,113,0.2,3.4,44,0.00,,,0.00,WUHU216HW,2013-03-10 13:30:00,
2013-03-10 09:35:00,49.5,28.4,30.17,SE,135,0.4,1.1,44,0.00,,,0.00,WUHU216HW,2013-03-10 13:35:00,
2013-03-10 09:40:00,50.0,29.4,30.17,SE,135,0.4,1.1,45,0.00,,,0.00,WUHU216HW,2013-03-10 13:40:00,
2013-03-10 09:45:00,50.4,29.8,30.17,SE,135,1.1,1.1,45,0.00,,,0.00,WUHU216HW,2013-03-10 13:45:00,
2013-03-10 09:50:00,51.1,29.9,30.17,SE,135,0.7,1.1,44,0.00,,,0.00,WUHU216HW,2013-03-10 13:50:00,
2013-03-10 09:55:00,51.5,29.6,30.17,ESE,113,1.1,1.1,43,0.00,,,0.00,WUHU216HW,2013-03-10 13:55:00,
2013-03-10 10:00:00,51.7,29.8,30.17,SE,135,0.4,1.1,43,0.00,,,0.00,WUHU216HW,2013-03-10 14:00:00,
2013-03-10 10:05:00,51.8,30.0,30.17,South,180,0.2,1.1,43,0.00,,,0.00,WUHU216HW,2013-03-10 14:05:00,
2013-03-10 10:10:00,52.2,30.8,30.17,South,180,0.4,0.4,44,0.00,,,0.00,WUHU216HW,2013-03-10 14:10:00,
2013-03-10 10:15:00,52.9,32.1,30.17,SSW,203,0.9,0.9,45,0.00,,,0.00,WUHU216HW,2013-03-10 14:15:00,
2013-03-10 10:20:00,54.2,32.0,30.17,SE,135,4.0,4.0,43,0.00,,,0.00,WUHU216HW,2013-03-10 14:20:00,
2013-03-10 10:25:00,54.5,31.2,30.17,WSW,248,2.5,4.9,41,0.00,,,0.00,WUHU216HW,2013-03-10 14:25:00,
2013-03-10 10:30:00,54.2,31.0,30.17,West,270,0.0,4.9,41,0.00,,,0.00,WUHU216HW,2013-03-10 14:30:00,
2013-03-10 10:35:00,54.0,30.3,30.17,SE,135,0.2,1.8,40,0.00,,,0.00,WUHU216HW,2013-03-10 14:35:00,
2013-03-10 10:40:00,54.4,29.9,30.17,SE,135,0.9,1.1,39,0.00,,,0.00,WUHU216HW,2013-03-10 14:40:00,
2013-03-10 10:45:00,54.7,30.9,30.17,SSW,203,0.4,2.7,40,0.00,,,0.00,WUHU216HW,2013-03-10 14:45:00,
2013-03-10 10:50:00,54.7,30.9,30.17,SSW,203,1.1,2.7,40,0.00,,,0.00,WUHU216HW,2013-03-10 14:50:00,
2013-03-10 10:55:00,54.9,31.1,30.17,SSW,203,1.6,2.0,40,0.00,,,0.00,WUHU216HW,2013-03-10 14:55:00,
2013-03-10 11:00:00,55.1,31.1,30.17,ESE,113,0.7,2.5,40,0.00,,,0.00,WUHU216HW,2013-03-10 15:00:00,
2013-03-10 11:05:00,55.6,31.7,30.17,SSW,203,0.4,2.7,40,0.00,,,0.00,WUHU216HW,2013-03-10 15:05:00,
2013-03-10 11:10:00,56.2,32.1,30.17,ESE,113,0.9,2.7,40,0.00,,,0.00,WUHU216HW,2013-03-10 15:10:00,
2013-03-10 11:15:00,56.5,32.5,30.17,SSW,203,0.4,0.9,40,0.00,,,0.00,WUHU216HW,2013-03-10 15:15:00,
2013-03-10 11:20:00,57.2,33.1,30.17,SSW,203,1.1,1.1,40,0.00,,,0.00,WUHU216HW,2013-03-10 15:20:00,
2013-03-10 11:25:00,57.8,33.6,30.17,ESE,113,0.9,1.1,40,0.00,,,0.00,WUHU216HW,2013-03-10 15:25:00,
2013-03-10 11:30:00,58.7,35.0,30.17,SSW,203,0.7,0.9,41,0.00,,,0.00,WUHU216HW,2013-03-10 15:30:00,
2013-03-10 11:35:00,59.4,35.1,30.17,SW,225,0.4,1.6,40,0.00,,,0.00,WUHU216HW,2013-03-10 15:35:00,
2013-03-10 11:40:00,60.1,35.0,30.17,West,270,0.7,3.4,39,0.00,,,0.00,WUHU216HW,2013-03-10 15:40:00,
2013-03-10 11:45:00,60.8,34.9,30.16,SSW,203,0.9,3.4,38,0.00,,,0.00,WUHU216HW,2013-03-10 15:45:00,
2013-03-10 11:50:00,60.8,34.9,30.16,WSW,248,1.6,1.6,38,0.00,,,0.00,WUHU216HW,2013-03-10 15:50:00,
2013-03-10 11:55:00,61.0,32.2,30.16,SW,225,0.4,2.5,34,0.00,,,0.00,WUHU216HW,2013-03-10 15:55:00,
2013-03-10 12:00:00,61.2,34.6,30.16,SSW,203,1.3,2.5,37,0.00,,,0.00,WUHU216HW,2013-03-10 16:00:00,
2013-03-10 12:05:00,61.4,33.2,30.16,West,270,1.8,3.4,35,0.00,,,0.00,WUHU216HW,2013-03-10 16:05:00,
2013-03-10 12:10:00,61.4,32.5,30.16,West,270,1.3,4.9,34,0.00,,,0.00,WUHU216HW,2013-03-10 16:10:00,
2013-03-10 12:15:00,62.1,35.4,30.16,West,270,1.8,4.9,37,0.00,,,0.00,WUHU216HW,2013-03-10 16:15:00,
2013-03-10 12:20:00,63.0,35.5,30.16,WSW,248,0.4,1.8,36,0.00,,,0.00,WUHU216HW,2013-03-10 16:20:00,
2013-03-10 12:25:00,63.7,36.1,30.16,West,270,1.6,4.5,36,0.00,,,0.00,WUHU216HW,2013-03-10 16:25:00,
2013-03-10 12:30:00,63.9,33.4,30.16,SW,225,1.6,4.5,32,0.00,,,0.00,WUHU216HW,2013-03-10 16:30:00,
2013-03-10 12:35:00,63.7,33.9,30.15,West,270,1.8,3.4,33,0.00,,,0.00,WUHU216HW,2013-03-10 16:35:00,
2013-03-10 12:40:00,63.7,33.2,30.15,ESE,113,1.8,3.4,32,0.00,,,0.00,WUHU216HW,2013-03-10 16:40:00,
2013-03-10 12:45:00,64.1,33.5,30.15,SW,225,1.3,2.2,32,0.00,,,0.00,WUHU216HW,2013-03-10 16:45:00,
2013-03-10 12:50:00,65.5,35.6,30.15,SSW,203,1.6,2.2,33,0.00,,,0.00,WUHU216HW,2013-03-10 16:50:00,
2013-03-10 12:55:00,66.1,36.0,30.15,West,270,2.9,2.9,33,0.00,,,0.00,WUHU216HW,2013-03-10 16:55:00,
2013-03-10 13:00:00,66.4,34.2,30.14,SW,225,0.7,2.9,30,0.00,,,0.00,WUHU216HW,2013-03-10 17:00:00,
2013-03-10 13:05:00,66.8,36.6,30.15,SSW,203,2.7,2.9,33,0.00,,,0.00,WUHU216HW,2013-03-10 17:05:00,
2013-03-10 13:10:00,68.0,38.4,30.14,SSW,203,0.7,2.7,34,0.00,,,0.00,WUHU216HW,2013-03-10 17:10:00,
2013-03-10 13:15:00,68.8,38.4,30.14,SW,225,1.1,3.6,33,0.00,,,0.00,WUHU216HW,2013-03-10 17:15:00,
2013-03-10 13:20:00,69.1,38.6,30.13,SW,225,1.8,3.6,33,0.00,,,0.00,WUHU216HW,2013-03-10 17:20:00,
2013-03-10 13:25:00,69.5,37.5,30.13,SSW,203,2.7,3.4,31,0.00,,,0.00,WUHU216HW,2013-03-10 17:25:00,
2013-03-10 13:30:00,69.7,39.2,30.13,SSW,203,1.8,3.6,33,0.00,,,0.00,WUHU216HW,2013-03-10 17:30:00,
2013-03-10 14:01:00,70.2,35.4,30.11,West,270,2.0,2.0,28,0.00,,,0.00,WUHU216HW,2013-03-10 18:01:00,
2013-03-10 14:08:00,70.6,37.7,30.11,NE,45,0.7,2.0,30,0.00,,,0.00,WUHU216HW,2013-03-10 18:08:00,
2013-03-10 14:13:00,70.9,36.0,30.10,SSW,203,3.4,4.9,28,0.00,,,0.00,WUHU216HW,2013-03-10 18:13:00,
2013-03-10 14:18:00,71.3,37.4,30.10,SSE,158,1.8,4.9,29,0.00,,,0.00,WUHU216HW,2013-03-10 18:18:00,
2013-03-10 14:23:00,71.8,38.9,30.10,SE,135,2.7,3.4,30,0.00,,,0.00,WUHU216HW,2013-03-10 18:23:00,
2013-03-10 14:28:00,72.0,36.9,30.09,East,90,1.8,3.8,28,0.00,,,0.00,WUHU216HW,2013-03-10 18:28:00,
2013-03-10 14:33:00,71.8,38.9,30.09,SSW,203,0.9,3.8,30,0.00,,,0.00,WUHU216HW,2013-03-10 18:33:00,
2013-03-10 14:38:00,71.6,36.6,30.09,ESE,113,3.6,3.6,28,0.00,,,0.00,WUHU216HW,2013-03-10 18:38:00,
2013-03-10 14:43:00,71.6,37.7,30.09,SW,225,2.9,3.6,29,0.00,,,0.00,WUHU216HW,2013-03-10 18:43:00,
2013-03-10 14:48:00,72.0,38.0,30.09,WSW,248,1.8,3.6,29,0.00,,,0.00,WUHU216HW,2013-03-10 18:48:00,
2013-03-10 14:53:00,72.4,39.2,30.09,ESE,113,1.8,3.6,30,0.00,,,0.00,WUHU216HW,2013-03-10 18:53:00,
2013-03-10 14:58:00,72.7,35.5,30.09,ESE,113,5.4,5.4,26,0.00,,,0.00,WUHU216HW,2013-03-10 18:58:00,
2013-03-10 15:03:00,72.5,34.4,30.08,ESE,113,4.3,6.9,25,0.00,,,0.00,WUHU216HW,2013-03-10 19:03:00,
2013-03-10 15:08:00,71.8,35.7,30.08,NE,45,2.5,7.8,27,0.00,,,0.00,WUHU216HW,2013-03-10 19:08:00,
2013-03-10 15:13:00,72.0,36.9,30.08,SSE,158,4.3,7.8,28,0.00,,,0.00,WUHU216HW,2013-03-10 19:13:00,
2013-03-10 15:18:00,72.2,36.1,30.08,SW,225,2.5,4.3,27,0.00,,,0.00,WUHU216HW,2013-03-10 19:18:00,
2013-03-10 15:23:00,72.4,36.2,30.08,South,180,1.8,5.4,27,0.00,,,0.00,WUHU216HW,2013-03-10 19:23:00,
2013-03-10 15:28:00,72.0,35.9,30.08,SSW,203,2.9,5.6,27,0.00,,,0.00,WUHU216HW,2013-03-10 19:28:00,
2013-03-10 15:33:00,72.4,37.3,30.07,ESE,113,2.5,5.6,28,0.00,,,0.00,WUHU216HW,2013-03-10 19:33:00,
2013-03-10 15:39:00,72.7,34.5,30.07,SE,135,1.8,4.0,25,0.00,,,0.00,WUHU216HW,2013-03-10 19:39:00,
2013-03-10 15:44:00,72.4,35.2,30.07,SSW,203,2.0,4.3,26,0.00,,,0.00,WUHU216HW,2013-03-10 19:44:00,
2013-03-10 15:49:00,72.4,35.2,30.07,East,90,3.1,4.3,26,0.00,,,0.00,WUHU216HW,2013-03-10 19:49:00,
2013-03-10 15:54:00,72.5,35.4,30.07,SW,225,2.5,4.5,26,0.00,,,0.00,WUHU216HW,2013-03-10 19:54:00,
2013-03-10 15:59:00,72.5,34.4,30.07,East,90,3.6,4.5,25,0.00,,,0.00,WUHU216HW,2013-03-10 19:59:00,
2013-03-10 16:04:00,72.0,34.9,30.07,NE,45,2.5,4.0,26,0.00,,,0.00,WUHU216HW,2013-03-10 20:04:00,
2013-03-10 16:11:00,71.3,34.3,30.07,SSW,203,1.6,4.0,26,0.00,,,0.00,WUHU216HW,2013-03-10 20:11:00,
2013-03-10 16:16:00,71.1,34.1,30.06,South,180,1.8,3.1,26,0.00,,,0.00,WUHU216HW,2013-03-10 20:16:00,
2013-03-10 16:21:00,70.9,35.0,30.06,SW,225,2.7,4.0,27,0.00,,,0.00,WUHU216HW,2013-03-10 20:21:00,
2013-03-10 16:26:00,70.9,34.0,30.06,SSW,203,2.0,4.9,26,0.00,,,0.00,WUHU216HW,2013-03-10 20:26:00,
2013-03-10 16:31:00,71.1,34.1,30.06,SSW,203,2.7,4.9,26,0.00,,,0.00,WUHU216HW,2013-03-10 20:31:00,
2013-03-10 16:36:00,71.5,33.4,30.05,ESE,113,5.8,5.8,25,0.00,,,0.00,WUHU216HW,2013-03-10 20:36:00,
2013-03-10 16:41:00,71.3,33.3,30.05,SSE,158,3.4,5.8,25,0.00,,,0.00,WUHU216HW,2013-03-10 20:41:00,
2013-03-10 16:46:00,70.9,34.0,30.05,SSW,203,1.8,5.8,26,0.00,,,0.00,WUHU216HW,2013-03-10 20:46:00,
2013-03-10 16:52:00,70.6,33.7,30.05,South,180,2.0,7.6,26,0.00,,,0.00,WUHU216HW,2013-03-10 20:52:00,
2013-03-10 16:57:00,70.2,33.4,30.04,South,180,4.0,7.6,26,0.00,,,0.00,WUHU216HW,2013-03-10 20:57:00,
2013-03-10 17:02:00,70.2,32.3,30.04,ESE,113,2.5,4.0,25,0.00,,,0.00,WUHU216HW,2013-03-10 21:02:00,
2013-03-10 17:07:00,69.8,32.0,30.04,ESE,113,4.0,4.3,25,0.00,,,0.00,WUHU216HW,2013-03-10 21:07:00,
2013-03-10 17:12:00,69.5,31.8,30.04,SSW,203,2.2,8.5,25,0.00,,,0.00,WUHU216HW,2013-03-10 21:12:00,
2013-03-10 17:17:00,69.5,32.8,30.03,SW,225,2.5,8.5,26,0.00,,,0.00,WUHU216HW,2013-03-10 21:17:00,
2013-03-10 17:22:00,69.3,34.6,30.03,ESE,113,2.2,5.6,28,0.00,,,0.00,WUHU216HW,2013-03-10 21:22:00,
2013-03-10 17:27:00,69.1,34.5,30.03,ESE,113,4.0,7.6,28,0.00,,,0.00,WUHU216HW,2013-03-10 21:27:00,
2013-03-10 17:32:00,68.9,34.3,30.02,SE,135,3.4,7.6,28,0.00,,,0.00,WUHU216HW,2013-03-10 21:32:00,
2013-03-10 17:37:00,68.6,33.9,30.02,SE,135,4.9,7.6,28,0.00,,,0.00,WUHU216HW,2013-03-10 21:37:00,
2013-03-10 17:42:00,68.4,33.9,30.03,East,90,3.1,7.6,28,0.00,,,0.00,WUHU216HW,2013-03-10 21:42:00,
2013-03-10 17:47:00,68.4,33.9,30.03,SSW,203,3.4,5.4,28,0.00,,,0.00,WUHU216HW,2013-03-10 21:47:00,
2013-03-10 17:52:00,68.6,34.9,30.03,SSE,158,2.5,5.4,29,0.00,,,0.00,WUHU216HW,2013-03-10 21:52:00,
2013-03-10 17:57:00,68.6,34.9,30.03,SSE,158,4.0,5.4,29,0.00,,,0.00,WUHU216HW,2013-03-10 21:57:00,
2013-03-10 18:02:00,68.2,33.7,30.03,ESE,113,3.8,4.7,28,0.00,,,0.00,WUHU216HW,2013-03-10 22:02:00,
2013-03-10 18:07:00,67.9,33.3,30.03,ESE,113,3.6,6.3,28,0.00,,,0.00,WUHU216HW,2013-03-10 22:07:00,
2013-03-10 18:12:00,67.5,34.0,30.04,SE,135,1.8,6.3,29,0.00,,,0.00,WUHU216HW,2013-03-10 22:12:00,
2013-03-10 18:17:00,67.3,33.9,30.04,SSW,203,2.5,3.1,29,0.00,,,0.00,WUHU216HW,2013-03-10 22:17:00,
2013-03-10 18:22:00,67.1,33.8,30.04,ESE,113,0.4,2.5,29,0.00,,,0.00,WUHU216HW,2013-03-10 22:22:00,
2013-03-10 18:27:00,67.0,34.6,30.05,SSW,203,3.6,3.6,30,0.00,,,0.00,WUHU216HW,2013-03-10 22:27:00,
2013-03-10 18:32:00,66.6,33.3,30.05,SE,135,4.0,4.0,29,0.00,,,0.00,WUHU216HW,2013-03-10 22:32:00,
2013-03-10 18:37:00,66.4,33.1,30.06,SW,225,0.9,4.0,29,0.00,,,0.00,WUHU216HW,2013-03-10 22:37:00,
2013-03-10 18:42:00,66.1,32.9,30.06,SSW,203,2.2,3.1,29,0.00,,,0.00,WUHU216HW,2013-03-10 22:42:00,
2013-03-10 18:47:00,65.7,32.5,30.06,ESE,113,2.7,2.9,29,0.00,,,0.00,WUHU216HW,2013-03-10 22:47:00,
2013-03-10 18:52:00,65.5,32.4,30.06,SE,135,2.9,5.6,29,0.00,,,0.00,WUHU216HW,2013-03-10 22:52:00,
2013-03-10 18:57:00,65.2,33.0,30.06,South,180,1.6,5.6,30,0.00,,,0.00,WUHU216HW,2013-03-10 22:57:00,
2013-03-10 19:02:00,65.0,32.9,30.05,ESE,113,0.9,2.9,30,0.00,,,0.00,WUHU216HW,2013-03-10 23:02:00,
2013-03-10 19:08:00,64.6,32.6,30.04,ESE,113,4.3,4.3,30,0.00,,,0.00,WUHU216HW,2013-03-10 23:08:00,
2013-03-10 19:13:00,64.4,32.4,30.04,SW,225,1.1,4.3,30,0.00,,,0.00,WUHU216HW,2013-03-10 23:13:00,
2013-03-10 19:18:00,63.9,32.0,30.04,SSW,203,2.0,2.7,30,0.00,,,0.00,WUHU216HW,2013-03-10 23:18:00,
2013-03-10 19:23:00,63.7,32.5,30.04,WSW,248,1.8,3.6,31,0.00,,,0.00,WUHU216HW,2013-03-10 23:23:00,
2013-03-10 19:28:00,63.2,32.0,30.05,SSW,203,1.8,3.6,31,0.00,,,0.00,WUHU216HW,2013-03-10 23:28:00,
2013-03-10 19:33:00,63.0,31.9,30.05,SSW,203,1.6,2.5,31,0.00,,,0.00,WUHU216HW,2013-03-10 23:33:00,
2013-03-10 19:38:00,62.6,32.2,30.05,South,180,0.4,3.1,32,0.00,,,0.00,WUHU216HW,2013-03-10 23:38:00,
2013-03-10 19:43:00,62.3,31.9,30.06,South,180,0.7,3.1,32,0.00,,,0.00,WUHU216HW,2013-03-10 23:43:00,
2013-03-10 19:48:00,61.9,31.6,30.06,SSE,158,2.5,2.5,32,0.00,,,0.00,WUHU216HW,2013-03-10 23:48:00,
2013-03-10 19:53:00,61.7,32.1,30.06,ESE,113,4.0,4.9,33,0.00,,,0.00,WUHU216HW,2013-03-10 23:53:00,
2013-03-10 19:58:00,61.7,32.1,30.06,ESE,113,2.5,4.9,33,0.00,,,0.00,WUHU216HW,2013-03-10 23:58:00,
2013-03-10 20:03:00,61.6,32.0,30.06,SE,135,1.8,2.9,33,0.00,,,0.00,WUHU216HW,2013-03-11 00:03:00,
2013-03-10 20:08:00,61.6,32.0,30.05,ESE,113,2.2,2.9,33,0.00,,,0.00,WUHU216HW,2013-03-11 00:08:00,
2013-03-10 20:13:00,61.2,32.4,30.05,SE,135,3.4,3.4,34,0.00,,,0.00,WUHU216HW,2013-03-11 00:13:00,
2013-03-10 20:18:00,61.2,32.4,30.05,ESE,113,3.1,4.5,34,0.00,,,0.00,WUHU216HW,2013-03-11 00:18:00,
2013-03-10 20:23:00,61.0,32.2,30.06,South,180,1.8,4.5,34,0.00,,,0.00,WUHU216HW,2013-03-11 00:23:00,
2013-03-10 20:28:00,60.8,32.0,30.06,ESE,113,3.1,3.8,34,0.00,,,0.00,WUHU216HW,2013-03-11 00:28:00,
2013-03-10 20:33:00,60.8,32.0,30.06,SSE,158,2.2,4.3,34,0.00,,,0.00,WUHU216HW,2013-03-11 00:33:00,
2013-03-10 20:38:00,60.8,32.0,30.06,SSE,158,2.5,5.4,34,0.00,,,0.00,WUHU216HW,2013-03-11 00:38:00,
2013-03-10 20:43:00,60.7,31.9,30.06,SSW,203,2.5,5.4,34,0.00,,,0.00,WUHU216HW,2013-03-11 00:43:00,
2013-03-10 20:48:00,60.7,31.9,30.06,SE,135,1.3,4.9,34,0.00,,,0.00,WUHU216HW,2013-03-11 00:48:00,
2013-03-10 20:53:00,60.5,31.8,30.06,ESE,113,2.0,3.6,34,0.00,,,0.00,WUHU216HW,2013-03-11 00:53:00,
2013-03-10 20:58:00,60.3,31.6,30.05,ENE,68,4.0,4.0,34,0.00,,,0.00,WUHU216HW,2013-03-11 00:58:00,
2013-03-10 21:03:00,60.1,31.4,30.05,SE,135,4.3,4.3,34,0.00,,,0.00,WUHU216HW,2013-03-11 01:03:00,
2013-03-10 21:08:00,59.9,32.0,30.05,SE,135,2.2,4.3,35,0.00,,,0.00,WUHU216HW,2013-03-11 01:08:00,
2013-03-10 21:13:00,59.8,32.6,30.05,SE,135,0.9,3.4,36,0.00,,,0.00,WUHU216HW,2013-03-11 01:13:00,
2013-03-10 21:18:00,59.6,32.4,30.05,SSW,203,4.9,4.9,36,0.00,,,0.00,WUHU216HW,2013-03-11 01:18:00,
2013-03-10 21:23:00,59.4,32.2,30.05,SE,135,3.8,4.9,36,0.00,,,0.00,WUHU216HW,2013-03-11 01:23:00,
2013-03-10 21:28:00,59.2,32.1,30.05,SSW,203,4.3,4.3,36,0.00,,,0.00,WUHU216HW,2013-03-11 01:28:00,
2013-03-10 21:33:00,59.0,32.0,30.05,South,180,4.0,4.3,36,0.00,,,0.00,WUHU216HW,2013-03-11 01:33:00,
2013-03-10 21:38:00,58.9,31.8,30.05,South,180,2.7,4.0,36,0.00,,,0.00,WUHU216HW,2013-03-11 01:38:00,
2013-03-10 21:43:00,58.7,31.6,30.05,East,90,2.9,3.1,36,0.00,,,0.00,WUHU216HW,2013-03-11 01:43:00,
2013-03-10 21:48:00,58.5,32.1,30.05,SE,135,3.8,3.8,37,0.00,,,0.00,WUHU216HW,2013-03-11 01:48:00,
2013-03-10 21:53:00,58.3,32.0,30.04,SE,135,2.5,6.0,37,0.00,,,0.00,WUHU216HW,2013-03-11 01:53:00,
2013-03-10 21:58:00,58.1,31.9,30.05,ESE,113,2.5,6.0,37,0.00,,,0.00,WUHU216HW,2013-03-11 01:58:00,
2013-03-10 22:03:00,58.0,31.7,30.05,SSW,203,4.7,6.3,37,0.00,,,0.00,WUHU216HW,2013-03-11 02:03:00,
2013-03-10 22:08:00,58.0,31.7,30.04,SSW,203,3.4,6.3,37,0.00,,,0.00,WUHU216HW,2013-03-11 02:08:00,
2013-03-10 22:13:00,57.8,32.2,30.04,South,180,1.1,5.6,38,0.00,,,0.00,WUHU216HW,2013-03-11 02:13:00,
2013-03-10 22:18:00,57.6,32.0,30.03,ENE,68,5.6,5.6,38,0.00,,,0.00,WUHU216HW,2013-03-11 02:18:00,
2013-03-10 22:23:00,57.6,32.0,30.03,SE,135,4.3,5.6,38,0.00,,,0.00,WUHU216HW,2013-03-11 02:23:00,
2013-03-10 22:28:00,57.4,31.9,30.03,SSW,203,4.3,5.6,38,0.00,,,0.00,WUHU216HW,2013-03-11 02:28:00,
2013-03-10 22:33:00,57.4,31.9,30.03,East,90,1.8,6.9,38,0.00,,,0.00,WUHU216HW,2013-03-11 02:33:00,
2013-03-10 22:38:00,57.2,31.7,30.03,SSW,203,2.0,6.9,38,0.00,,,0.00,WUHU216HW,2013-03-11 02:38:00,
2013-03-10 22:43:00,57.2,32.4,30.03,East,90,2.5,6.0,39,0.00,,,0.00,WUHU216HW,2013-03-11 02:43:00,
2013-03-10 22:48:00,57.1,32.2,30.03,SE,135,4.5,6.0,39,0.00,,,0.00,WUHU216HW,2013-03-11 02:48:00,
2013-03-10 22:53:00,57.1,32.2,30.03,ESE,113,3.4,4.5,39,0.00,,,0.00,WUHU216HW,2013-03-11 02:53:00,
2013-03-10 22:58:00,57.1,32.2,30.03,SSE,158,1.3,4.0,39,0.00,,,0.00,WUHU216HW,2013-03-11 02:58:00,
2013-03-10 23:03:00,56.9,32.1,30.03,South,180,0.7,4.0,39,0.00,,,0.00,WUHU216HW,2013-03-11 03:03:00,
2013-03-10 23:08:00,56.9,32.1,30.04,SSE,158,0.2,3.4,39,0.00,,,0.00,WUHU216HW,2013-03-11 03:08:00,
2013-03-10 23:13:00,56.5,31.8,30.04,West,270,1.1,2.2,39,0.00,,,0.00,WUHU216HW,2013-03-11 03:13:00,
2013-03-10 23:18:00,56.3,32.3,30.04,ESE,113,2.0,2.7,40,0.00,,,0.00,WUHU216HW,2013-03-11 03:18:00,
2013-03-10 23:23:00,56.2,32.1,30.05,SSE,158,0.7,2.7,40,0.00,,,0.00,WUHU216HW,2013-03-11 03:23:00,
2013-03-10 23:28:00,56.0,32.0,30.06,SSE,158,1.1,1.6,40,0.00,,,0.00,WUHU216HW,2013-03-11 03:28:00,
2013-03-10 23:33:00,55.8,31.9,30.06,ESE,113,1.8,1.8,40,0.00,,,0.00,WUHU216HW,2013-03-11 03:33:00,
2013-03-10 23:38:00,55.6,32.2,30.04,SSW,203,1.8,2.5,41,0.00,,,0.00,WUHU216HW,2013-03-11 03:38:00,
2013-03-10 23:43:00,55.4,32.0,30.03,SE,135,4.3,4.3,41,0.00,,,0.00,WUHU216HW,2013-03-11 03:43:00,
2013-03-10 23:48:00,55.4,32.0,30.03,SW,225,1.3,4.3,41,0.00,,,0.00,WUHU216HW,2013-03-11 03:48:00,
2013-03-10 23:55:00,55.4,32.0,30.04,WSW,248,0.4,4.3,41,0.00,,,0.00,WUHU216HW,2013-03-11 03:55:00,